2015-05-08 00:04:41 r, 19.97m,0000000001Hz,0000531850c,0000001.154s, 016.1C,00002191
2015-05-08 00:14:41 r, 19.82m,0000000001Hz,0000460659c,0000001.000s, 016.1C,00002191
2015-05-08 00:24:41 r, 19.85m,0000000001Hz,0000472318c,0000001.025s, 016.1C,00002191
2015-05-08 00:34:41 r, 19.76m,0000000001Hz,0000437700c,0000000.950s, 016.1C,00002191
2015-05-08 00:44:41 r, 19.89m,0000000001Hz,0000492475c,0000001.069s, 015.7C,00002191
2015-05-08 00:54:42 r, 19.78m,0000000001Hz,0000444399c,0000000.964s, 015.7C,00002191
2015-05-08 01:04:41 r, 19.67m,0000000001Hz,0000401986c,0000000.872s, 015.7C,00002191
2015-05-08 01:14:42 r, 19.54m,0000000001Hz,0000356077c,0000000.773s, 015.7C,00002191
2015-05-08 01:24:41 r, 19.30m,0000000002Hz,0000287189c,0000000.623s, 015.7C,00002191
2015-05-08 01:34:41 r, 19.15m,0000000002Hz,0000250617c,0000000.544s, 015.4C,00002191
2015-05-08 01:44:42 r, 19.36m,0000000001Hz,0000301328c,0000000.654s, 015.4C,00002191
2015-05-08 01:54:43 r, 19.09m,0000000002Hz,0000237061c,0000000.514s, 015.4C,00002191
2015-05-08 02:04:41 r, 19.40m,0000000002Hz,0000313338c,0000000.680s, 015.4C,00002191
2015-05-08 02:14:41 r, 19.24m,0000000002Hz,0000271714c,0000000.590s, 015.1C,00002191
2015-05-08 02:24:43 r, 18.76m,0000000002Hz,0000174958c,0000000.380s, 014.8C,00002191
2015-05-08 02:34:41 r, 18.53m,0000000004Hz,0000141798c,0000000.308s, 014.8C,00002191
2015-05-08 02:44:41 r, 18.54m,0000000003Hz,0000144027c,0000000.313s, 014.8C,00002191
2015-05-08 02:54:43 r, 18.53m,0000000004Hz,0000143043c,0000000.310s, 014.8C,00002191
2015-05-08 03:04:42 r, 18.59m,0000000003Hz,0000149608c,0000000.325s, 014.8C,00002191
2015-05-08 03:14:41 r, 18.59m,0000000003Hz,0000150054c,0000000.326s, 014.5C,00002191
2015-05-08 03:24:42 r, 18.51m,0000000003Hz,0000138874c,0000000.301s, 014.5C,00002191
2015-05-08 03:34:41 r, 18.38m,0000000003Hz,0000123810c,0000000.269s, 014.5C,00002191
2015-05-08 03:44:41 r, 18.27m,0000000004Hz,0000111500c,0000000.242s, 014.5C,00002191
2015-05-08 03:54:42 r, 18.33m,0000000004Hz,0000118023c,0000000.256s, 014.1C,00002191
2015-05-08 04:04:41 r, 18.37m,0000000004Hz,0000121930c,0000000.265s, 014.5C,00002191
2015-05-08 04:14:41 r, 18.56m,0000000003Hz,0000145879c,0000000.317s, 014.5C,00002191
2015-05-08 04:24:41 r, 18.40m,0000000004Hz,0000125094c,0000000.271s, 014.1C,00002191
2015-05-08 04:34:41 r, 18.11m,0000000005Hz,0000096095c,0000000.209s, 014.1C,00002191
2015-05-08 04:44:41 r, 17.59m,0000000008Hz,0000059707c,0000000.130s, 014.1C,00002191
2015-05-08 04:54:42 r, 16.50m,0000000021Hz,0000021890c,0000000.048s, 013.8C,00002191
2015-05-08 05:04:41 r, 15.30m,0000000065Hz,0000007199c,0000000.016s, 013.8C,00002191
2015-05-08 05:14:41 r, 13.62m,0000000303Hz,0000000000c,0000000.000s, 013.8C,00002191
2015-05-08 05:24:41 r, 11.74m,0000001696Hz,0000000000c,0000000.000s, 013.8C,00002191
2015-05-08 05:34:41 r, 10.03m,0000008235Hz,0000000000c,0000000.000s, 013.5C,00002191
2015-05-08 05:44:41 r, 08.63m,0000029735Hz,0000000000c,0000000.000s, 013.5C,00002191
2015-05-08 05:54:41 r, 07.72m,0000069538Hz,0000000000c,0000000.000s, 013.5C,00002191
2015-05-08 06:04:41 r, 07.18m,0000113467Hz,0000000000c,0000000.000s, 013.2C,00002191
2015-05-08 06:14:41 r, 06.35m,0000244110Hz,0000000000c,0000000.000s, 013.2C,00002191
2015-05-08 06:24:41 r, 05.85m,0000385967Hz,0000000000c,0000000.000s, 013.5C,00002191
2015-05-08 06:34:42 r, 00.00m,0000596057Hz,0000000000c,0000000.000s, 013.5C,00002191
2015-05-08 06:44:42 r, 00.00m,0000596075Hz,0000000000c,0000000.000s, 013.8C,00002191
2015-05-08 06:54:41 r, 00.00m,0000596057Hz,0000000000c,0000000.000s, 013.8C,00002191
2015-05-08 07:04:41 r, 00.00m,0000596123Hz,0000000000c,0000000.000s, 014.8C,00002191
2015-05-08 07:14:41 r, 00.00m,0000595997Hz,0000000000c,0000000.000s, 015.1C,00002191
2015-05-08 07:24:42 r, 00.00m,0000596051Hz,0000000000c,0000000.000s, 015.1C,00002191
2015-05-08 07:34:42 r, 00.00m,0000595990Hz,0000000000c,0000000.000s, 015.7C,00002191
2015-05-08 07:44:41 r, 00.00m,0000595870Hz,0000000000c,0000000.000s, 016.7C,00002191
2015-05-08 07:54:43 r, 00.00m,0000595758Hz,0000000000c,0000000.000s, 018.0C,00002191
2015-05-08 08:04:41 r, 00.00m,0000595793Hz,0000000000c,0000000.000s, 018.3C,00002191
2015-05-08 08:14:41 r, 00.00m,0000595630Hz,0000000000c,0000000.000s, 019.3C,00002191
2015-05-08 08:24:42 r, 00.00m,0000595427Hz,0000000000c,0000000.000s, 020.6C,00002191
2015-05-08 08:34:41 r, 00.00m,0000595437Hz,0000000000c,0000000.000s, 021.2C,00002191
2015-05-08 08:44:41 r, 00.00m,0000595333Hz,0000000000c,0000000.000s, 020.6C,00002191
2015-05-08 08:54:41 r, 00.00m,0000595347Hz,0000000000c,0000000.000s, 020.6C,00002191
2015-05-08 09:04:42 r, 00.00m,0000595263Hz,0000000000c,0000000.000s, 020.9C,00002191
2015-05-08 09:14:41 r, 00.00m,0000595201Hz,0000000000c,0000000.000s, 022.8C,00002191
2015-05-08 09:24:41 r, 00.00m,0000595188Hz,0000000000c,0000000.000s, 023.2C,00002191
2015-05-08 09:34:42 r, 00.00m,0000594809Hz,0000000000c,0000000.000s, 025.4C,00002191
2015-05-08 09:44:42 r, 00.00m,0000595170Hz,0000000000c,0000000.000s, 024.1C,00002191
2015-05-08 09:54:41 r, 00.00m,0000594899Hz,0000000000c,0000000.000s, 025.7C,00002191
2015-05-08 10:04:41 r, 00.00m,0000594740Hz,0000000000c,0000000.000s, 027.0C,00002191
2015-05-08 10:14:41 r, 00.00m,0000594654Hz,0000000000c,0000000.000s, 027.0C,00002191
2015-05-08 10:24:42 r, 00.00m,0000595005Hz,0000000000c,0000000.000s, 025.1C,00002191
2015-05-08 10:34:41 r, 00.00m,0000595197Hz,0000000000c,0000000.000s, 022.2C,00002191
2015-05-08 10:44:41 r, 00.00m,0000595179Hz,0000000000c,0000000.000s, 022.2C,00002191
2015-05-08 10:54:41 r, 00.00m,0000595201Hz,0000000000c,0000000.000s, 021.9C,00002191
2015-05-08 11:04:41 r, 00.00m,0000595149Hz,0000000000c,0000000.000s, 022.2C,00002191
2015-05-08 11:14:41 r, 00.00m,0000595159Hz,0000000000c,0000000.000s, 023.2C,00002191
2015-05-08 11:24:42 r, 00.00m,0000595080Hz,0000000000c,0000000.000s, 023.2C,00002191
2015-05-08 11:34:42 r, 00.00m,0000594943Hz,0000000000c,0000000.000s, 023.5C,00002191
2015-05-08 11:44:41 r, 00.00m,0000595186Hz,0000000000c,0000000.000s, 023.2C,00002191
2015-05-08 11:54:42 r, 00.00m,0000595103Hz,0000000000c,0000000.000s, 023.5C,00002191
2015-05-08 12:04:41 r, 00.00m,0000594918Hz,0000000000c,0000000.000s, 023.8C,00002191
2015-05-08 12:14:41 r, 00.00m,0000594839Hz,0000000000c,0000000.000s, 024.8C,00002191
2015-05-08 12:24:41 r, 00.00m,0000594675Hz,0000000000c,0000000.000s, 025.7C,00002191
2015-05-08 12:34:41 r, 00.00m,0000594554Hz,0000000000c,0000000.000s, 027.3C,00002191
2015-05-08 12:44:41 r, 00.00m,0000594661Hz,0000000000c,0000000.000s, 026.1C,00002191
2015-05-08 12:54:43 r, 00.00m,0000594622Hz,0000000000c,0000000.000s, 025.7C,00002191
2015-05-08 13:04:41 r, 00.00m,0000594819Hz,0000000000c,0000000.000s, 025.1C,00002191
2015-05-08 13:14:41 r, 00.00m,0000594918Hz,0000000000c,0000000.000s, 024.4C,00002191
2015-05-08 13:24:41 r, 00.00m,0000594901Hz,0000000000c,0000000.000s, 024.4C,00002191
2015-05-08 13:34:42 r, 00.00m,0000594791Hz,0000000000c,0000000.000s, 024.4C,00002191
2015-05-08 13:44:41 r, 00.00m,0000595091Hz,0000000000c,0000000.000s, 024.4C,00002191
2015-05-08 13:54:43 r, 00.00m,0000594945Hz,0000000000c,0000000.000s, 024.4C,00002191
2015-05-08 14:04:41 r, 00.00m,0000594755Hz,0000000000c,0000000.000s, 025.7C,00002191
2015-05-08 14:14:42 r, 00.00m,0000594520Hz,0000000000c,0000000.000s, 027.3C,00002191
2015-05-08 14:24:43 r, 00.00m,0000594635Hz,0000000000c,0000000.000s, 027.3C,00002191
2015-05-08 14:34:42 r, 00.00m,0000594544Hz,0000000000c,0000000.000s, 027.3C,00002191
2015-05-08 14:44:42 r, 00.00m,0000594792Hz,0000000000c,0000000.000s, 026.1C,00002191
2015-05-08 14:54:42 r, 00.00m,0000594598Hz,0000000000c,0000000.000s, 026.7C,00002191
2015-05-08 15:04:41 r, 00.00m,0000594640Hz,0000000000c,0000000.000s, 026.4C,00002191
2015-05-08 15:14:42 r, 00.00m,0000594717Hz,0000000000c,0000000.000s, 026.1C,00002191
2015-05-08 15:24:42 r, 00.00m,0000594821Hz,0000000000c,0000000.000s, 025.7C,00002191
2015-05-08 15:34:42 r, 00.00m,0000594831Hz,0000000000c,0000000.000s, 025.7C,00002191
2015-05-08 15:44:42 r, 00.00m,0000594861Hz,0000000000c,0000000.000s, 025.4C,00002191
2015-05-08 15:54:42 r, 00.00m,0000594583Hz,0000000000c,0000000.000s, 026.7C,00002191
2015-05-08 16:04:42 r, 00.00m,0000594695Hz,0000000000c,0000000.000s, 027.3C,00002191
2015-05-08 16:14:41 r, 00.00m,0000594707Hz,0000000000c,0000000.000s, 026.7C,00002191
2015-05-08 16:24:43 r, 00.00m,0000594761Hz,0000000000c,0000000.000s, 026.1C,00002191
2015-05-08 16:34:42 r, 00.00m,0000594687Hz,0000000000c,0000000.000s, 026.4C,00002191
2015-05-08 16:44:41 r, 00.00m,0000594832Hz,0000000000c,0000000.000s, 026.1C,00002191
2015-05-08 16:54:42 r, 00.00m,0000594940Hz,0000000000c,0000000.000s, 025.4C,00002191
2015-05-08 17:04:41 r, 00.00m,0000594927Hz,0000000000c,0000000.000s, 024.8C,00002191
2015-05-08 17:14:41 r, 00.00m,0000594692Hz,0000000000c,0000000.000s, 025.1C,00002191
2015-05-08 17:24:42 r, 00.00m,0000595028Hz,0000000000c,0000000.000s, 023.8C,00002191
2015-05-08 17:34:41 r, 00.00m,0000595051Hz,0000000000c,0000000.000s, 024.1C,00002191
2015-05-08 17:44:42 r, 00.00m,0000594995Hz,0000000000c,0000000.000s, 024.1C,00002191
2015-05-08 17:54:42 r, 00.00m,0000595104Hz,0000000000c,0000000.000s, 024.4C,00002191
2015-05-08 18:04:42 r, 00.00m,0000595189Hz,0000000000c,0000000.000s, 023.5C,00002191
2015-05-08 18:14:41 r, 00.00m,0000595196Hz,0000000000c,0000000.000s, 023.2C,00002191
2015-05-08 18:24:41 r, 00.00m,0000595233Hz,0000000000c,0000000.000s, 021.9C,00002191
2015-05-08 18:34:42 r, 00.00m,0000595285Hz,0000000000c,0000000.000s, 020.9C,00002191
2015-05-08 18:44:41 r, 00.00m,0000595370Hz,0000000000c,0000000.000s, 019.9C,00002191
2015-05-08 18:54:41 r, 00.00m,0000595417Hz,0000000000c,0000000.000s, 019.3C,00002191
2015-05-08 19:04:43 r, 00.00m,0000595451Hz,0000000000c,0000000.000s, 018.6C,00002191
2015-05-08 19:14:41 r, 00.00m,0000595614Hz,0000000000c,0000000.000s, 018.3C,00002191
2015-05-08 19:24:42 r, 00.00m,0000595660Hz,0000000000c,0000000.000s, 018.0C,00002191
2015-05-08 19:34:42 r, 00.00m,0000595565Hz,0000000000c,0000000.000s, 017.7C,00002191
2015-05-08 19:44:41 r, 00.00m,0000595675Hz,0000000000c,0000000.000s, 017.4C,00002191
2015-05-08 19:54:42 r, 00.00m,0000595845Hz,0000000000c,0000000.000s, 017.0C,00002191
2015-05-08 20:04:42 r, 00.00m,0000595631Hz,0000000000c,0000000.000s, 016.7C,00002191
2015-05-08 20:14:42 r, 00.00m,0000595849Hz,0000000000c,0000000.000s, 016.4C,00002191
2015-05-08 20:24:42 r, 00.00m,0000460826Hz,0000000000c,0000000.000s, 015.7C,00002191
2015-05-08 20:34:42 r, 06.14m,0000298097Hz,0000000000c,0000000.000s, 015.7C,00002191
2015-05-08 20:44:41 r, 06.72m,0000173834Hz,0000000000c,0000000.000s, 015.1C,00002191
2015-05-08 20:54:41 r, 07.48m,0000086118Hz,0000000000c,0000000.000s, 014.8C,00002191
2015-05-08 21:04:42 r, 08.58m,0000031478Hz,0000000000c,0000000.000s, 014.8C,00002191
2015-05-08 21:14:42 r, 09.98m,0000008687Hz,0000000000c,0000000.000s, 014.5C,00002191
2015-05-08 21:24:41 r, 11.48m,0000002167Hz,0000000000c,0000000.000s, 014.1C,00002191
2015-05-08 21:34:43 r, 13.17m,0000000456Hz,0000000000c,0000000.000s, 014.1C,00002191
2015-05-08 21:44:41 r, 14.82m,0000000100Hz,0000004647c,0000000.010s, 014.1C,00002191
2015-05-08 21:54:42 r, 16.29m,0000000026Hz,0000017936c,0000000.039s, 014.1C,00002191
2015-05-08 22:04:43 r, 17.47m,0000000009Hz,0000053598c,0000000.116s, 013.8C,00002191
2015-05-08 22:14:41 r, 18.41m,0000000003Hz,0000126811c,0000000.275s, 013.8C,00002191
2015-05-08 22:24:42 r, 19.07m,0000000002Hz,0000230517c,0000000.500s, 013.8C,00002191
2015-05-08 22:34:42 r, 19.62m,0000000001Hz,0000383922c,0000000.833s, 013.8C,00002191
2015-05-08 22:44:42 r, 19.90m,0000000001Hz,0000496384c,0000001.077s, 013.8C,00002191
2015-05-08 22:54:41 r, 20.48m,0000000001Hz,0000840439c,0000001.824s, 013.5C,00002191
2015-05-08 23:04:41 r, 20.65m,0000000001Hz,0000986032c,0000002.140s, 013.5C,00002191
2015-05-08 23:14:42 r, 20.67m,0000000001Hz,0000997921c,0000002.166s, 013.2C,00002191
2015-05-08 23:24:42 r, 20.43m,0000000001Hz,0000804727c,0000001.746s, 012.8C,00002191
2015-05-08 23:34:42 r, 20.65m,0000000000Hz,0000975100c,0000002.116s, 012.8C,00002191
2015-05-08 23:44:42 r, 20.63m,0000000001Hz,0000963596c,0000002.091s, 012.8C,00002191
2015-05-08 23:54:41 r, 20.85m,0000000001Hz,0001182408c,0000002.566s, 012.8C,00002191
